XW-2C (40906 NORAD) Tracking and Keplerian Element Data

This shows tracking and keplerian element data for the satellite.

Feedback or suggestion? Click here.




ElementValue
Catalog40906
NameXW-2C
Epoch Orbit17416
Epoch Day317.89798005
Epoch Year2018
RAAN318.6952
Inclination97.4638
Eccentricity0.0013274
Argument of Perigee228.6905
Mean Anonmoly177.7601
Mean Motion15.15391344
Decay Rate4.43E-06
L11 40906U 15049H 18317.89798005 .00000443 00000-0 26918-4 0 9995
L22 40906 97.4638 318.6952 0013274 228.6905 177.7601 15.15391344174165

Live tracking and technical data element details for XW-2C (NORAD 40906). XW-2C can be tracked NOW for your location showing map with azimuth and elevation plus other details from your city location.

Track the satellite on the map from your city or location and see movement details for azimuth, elevation, latitude, longitude, range, height, and movement on the map or in text.







IsCatalogInMostPopularTable: catalog: 40906, numindb: 109
Update: records affected: 1



GetName: 40906 XW-2C

Hit Count: updated at: Wed, 14 Nov 2018 10:49:32 GMT